Résultats de la compétition "IR-YCONE-ASQ-CART'O-AVALLON (89)." du 16-08-2009 organisée par le club 8903
     
  Télécharger le fichier CSV.  
     
     

 Circuit "G"

Licence Nom Prénom Temps CN
précédent
Score sur
la course
Différence
2401DEVILLENelly0:43:5945614513-48
6491ROBERTFrancoise0:46:2138304283+453
5033THIEBAULTMonique0:48:3240264090+64
12354GROSJEANPierre0:55:2125013586+1085
14245RICHARDNicole0:57:0231363480+344
1276ANTOINERegis0:59:2037123345-367
395BLASCONicole0:59:4737923320-472
1380DIEUDONNEMadeleine1:00:3640923276-816
2888MOULIEREM-Bernadett1:04:0628363097+261
6886FRANTZFrancoise1:07:3634322936-496
1000LEFOUESTJoseph1:10:2438092820-989
368VESCOVOOdile1:18:3922132524+311
12059GROSJEANA-Marie1:28:2423092245-64
14632ALLANCONClaudine1:29:1615492224+675
934TESTOUDMadeleine1:34:3320442099+55
931SIMONETMarie1:35:31N/A2078N/A
15894LUDEWIG-JAMESCarol1:37:2523832038-345
2446RIFFARDM-Lucie1:37:4727352030-705
14164EJSMONTMartine1:59:5715611655+94
20538BOUCHERONLaurence2:01:2819321634-298
725LAURENTTherese2:02:5524131615-798
1001LEFOUESTM-Therese2:26:5517421351-391
6826DUVOUXFranceN/A26790-2679
1438BOUSQUETMichelN/A33250-3325
1437BOUSQUETHuguetteN/A16170-1617
1087ROBERTMartineN/A33490-3349
22016MOUAHasnaN/AN/A0N/A

  Indice de confiance du circuit (moyenne des différences entre CN et score sur la course des 3 à 10 premiers) : 261






 Retour